| time (UTC) | temp F | wind direction | speed MPH | gust MPH | rain 1hr in | rain 24hr in | rain mn in | humidity % | barometer mb |
| 20260509110005 | 61 | 138 | 0.0 | 0.0 | 0.00 | 0.01 | 0.00 | 1 | 1009.2 |
| 20260509104501 | 61 | 138 | 0.0 | 0.0 | 0.00 | 0.01 | 0.00 | 1 | 1009.2 |
| 20260509103102 | 61 | 138 | 0.0 | 0.0 | 0.00 | 0.01 | 0.00 | 1 | 1008.9 |
| 20260509101558 | 60 | 77 | 0.0 | 0.0 | 0.00 | 0.01 | 0.00 | 1 | 1008.9 |
| 20260509100051 | 60 | 77 | 0.0 | 0.0 | 0.00 | 0.01 | 0.00 | 1 | 1008.4 |
| 20260509094543 | 60 | 77 | 0.0 | 0.0 | 0.00 | 0.01 | 0.00 | 1 | 1008.0 |
| 20260509093040 | 60 | 131 | 0.0 | 0.0 | 0.00 | 0.01 | 0.00 | 1 | 1007.9 |
| 20260509091536 | 60 | 128 | 0.0 | 0.0 | 0.00 | 0.01 | 0.00 | 1 | 1007.8 |
| 20260509090030 | 60 | 309 | 0.0 | 0.0 | 0.00 | 0.01 | 0.00 | 1 | 1008.2 |
| 20260509084529 | 60 | 309 | 0.0 | 0.0 | 0.00 | 0.01 | 0.00 | 1 | 1008.3 |
| 20260509083020 | 60 | 309 | 0.0 | 0.0 | 0.00 | 0.01 | 0.00 | 1 | 1008.4 |
| 20260509081517 | 61 | 309 | 0.0 | 0.0 | 0.00 | 0.01 | 0.00 | 1 | 1008.3 |
| 20260509080013 | 61 | 309 | 0.0 | 0.0 | 0.00 | 0.01 | 0.00 | 1 | 1008.5 |
| 20260509074507 | 62 | 309 | 0.0 | 0.0 | 0.00 | 0.01 | 0.00 | 1 | 1008.5 |
| 20260509073011 | 62 | 310 | 0.0 | 0.0 | 0.00 | 0.01 | 0.00 | 1 | 1008.9 |
| 20260509071559 | 62 | 310 | 0.0 | 0.0 | 0.00 | 0.01 | 0.00 | 1 | 1009.0 |
| 20260509070059 | 62 | 310 | 0.0 | 0.0 | 0.00 | 0.01 | 0.00 | 1 | 1009.5 |
| 20260509064550 | 62 | 310 | 0.0 | 0.0 | 0.00 | 0.01 | 0.00 | 1 | 1009.2 |
| 20260509063046 | 62 | 77 | 0.0 | 0.0 | 0.00 | 0.01 | 0.00 | 1 | 1008.9 |
| 20260509061541 | 62 | 176 | 0.0 | 0.0 | 0.00 | 0.01 | 0.00 | 1 | 1010.0 |
| 20260509060046 | 62 | 251 | 0.0 | 0.0 | 0.00 | 0.01 | 0.00 | 1 | 1010.1 |
| 20260509054532 | 62 | 183 | 0.0 | 0.0 | 0.00 | 0.01 | 0.00 | 1 | 1010.0 |
| 20260509053032 | 62 | 124 | 0.0 | 0.0 | 0.00 | 0.01 | 0.00 | 1 | 1010.0 |
| 20260509051522 | 62 | 123 | 0.0 | 0.0 | 0.00 | 0.01 | 0.00 | 1 | 1009.6 |
| 20260509050018 | 62 | 124 | 0.0 | 0.0 | 0.00 | 0.01 | 0.00 | 1 | 1009.3 |
| 20260509044516 | 62 | 88 | 0.0 | 0.0 | 0.00 | 0.01 | 0.01 | 1 | 1009.3 |
| 20260509043015 | 61 | 118 | 0.0 | 0.0 | 0.00 | 0.01 | 0.01 | 1 | 1009.5 |
| 20260509041505 | 61 | 118 | 0.0 | 0.0 | 0.00 | 0.01 | 0.01 | 1 | 1010.1 |
| 20260509040001 | 61 | 118 | 0.0 | 0.0 | 0.00 | 0.01 | 0.01 | 1 | 1010.1 |
| 20260509034601 | 61 | 118 | 0.0 | 0.0 | 0.00 | 0.01 | 0.01 | 1 | 1010.1 |
| 20260509033053 | 60 | 118 | 0.0 | 0.0 | 0.00 | 0.01 | 0.01 | 1 | 1010.0 |
| 20260509031548 | 60 | 118 | 0.0 | 0.0 | 0.00 | 0.01 | 0.01 | 1 | 1009.9 |
| 20260509030047 | 59 | 118 | 0.0 | 0.0 | 0.00 | 0.01 | 0.01 | 1 | 1009.7 |
| 20260509024539 | 59 | 118 | 0.0 | 0.0 | 0.00 | 0.01 | 0.01 | 1 | 1009.7 |
| 20260509023034 | 59 | 118 | 0.0 | 0.0 | 0.00 | 0.01 | 0.01 | 1 | 1009.6 |
| 20260509021535 | 59 | 118 | 0.0 | 0.0 | 0.00 | 0.01 | 0.01 | 1 | 1009.6 |
| 20260509020026 | 59 | 155 | 0.0 | 0.0 | 0.00 | 0.01 | 0.01 | 1 | 1009.8 |
| 20260509014521 | 61 | 155 | 0.0 | 0.0 | 0.00 | 0.01 | 0.01 | 4 | 1009.9 |
| 20260509013019 | 62 | 155 | 0.0 | 0.0 | 0.00 | 0.01 | 0.01 | 16 | 1009.9 |
| 20260509011514 | 63 | 155 | 0.0 | 0.0 | 0.00 | 0.01 | 0.01 | 20 | 1009.6 |
| 20260509010016 | 64 | 142 | 0.0 | 0.0 | 0.00 | 0.01 | 0.01 | 31 | 1009.7 |
| 20260509004505 | 65 | 113 | 0.0 | 0.0 | 0.00 | 0.01 | 0.01 | 42 | 1009.8 |
| 20260509003100 | 66 | 219 | 0.0 | 0.0 | 0.00 | 0.01 | 0.01 | 47 | 1010.1 |
| 20260509001555 | 67 | 118 | 0.0 | 0.0 | 0.00 | 0.01 | 0.01 | 54 | 1010.0 |
| 20260509000052 | 68 | 120 | 0.0 | 6.0 | 0.00 | 0.01 | 0.01 | 57 | 1009.8 |
| 20260508234546 | 68 | 84 | 0.0 | 0.0 | 0.00 | 0.01 | 0.01 | 49 | 1009.8 |
| 20260508233042 | 67 | 124 | 0.0 | 0.0 | 0.00 | 0.01 | 0.01 | 52 | 1009.8 |
| 20260508231538 | 67 | 150 | 0.0 | 0.0 | 0.00 | 0.01 | 0.01 | 54 | 1010.2 |
| 20260508230033 | 67 | 140 | 0.0 | 0.0 | 0.00 | 0.01 | 0.01 | 54 | 1010.2 |
| 20260508224528 | 67 | 101 | 0.0 | 0.0 | 0.00 | 0.01 | 0.01 | 57 | 1009.9 |
| 20260508223037 | 67 | 139 | 0.0 | 0.0 | 0.00 | 0.01 | 0.01 | 59 | 1009.9 |
| 20260508221520 | 68 | 107 | 0.0 | 2.0 | 0.00 | 0.01 | 0.01 | 60 | 1010.3 |
| 20260508220020 | 68 | 129 | 0.0 | 0.0 | 0.00 | 0.01 | 0.01 | 60 | 1010.7 |
| 20260508214510 | 68 | 207 | 0.0 | 0.0 | 0.00 | 0.01 | 0.01 | 61 | 1010.8 |
| 20260508213009 | 68 | 213 | 0.0 | 2.0 | 0.00 | 0.01 | 0.01 | 60 | 1010.9 |
| 20260508211503 | 68 | 148 | 0.0 | 0.0 | 0.00 | 0.01 | 0.01 | 60 | 1011.1 |
| 20260508204557 | 69 | 239 | 0.0 | 0.0 | 0.00 | 0.01 | 0.01 | 58 | 1011.2 |
| 20260508203056 | 69 | 102 | 0.0 | 5.0 | 0.00 | 0.01 | 0.01 | 56 | 1011.2 |
| 20260508201546 | 70 | 153 | 0.0 | 3.0 | 0.00 | 0.01 | 0.01 | 56 | 1011.1 |
| 20260508200041 | 70 | 156 | 0.0 | 4.0 | 0.00 | 0.01 | 0.01 | 58 | 1011.6 |
| 20260508194536 | 70 | 148 | 0.0 | 6.0 | 0.00 | 0.01 | 0.01 | 58 | 1011.8 |
| 20260508193036 | 70 | 206 | 0.0 | 3.0 | 0.00 | 0.01 | 0.01 | 56 | 1011.5 |
| 20260508191531 | 70 | 100 | 0.0 | 0.0 | 0.00 | 0.01 | 0.01 | 56 | 1011.8 |
| 20260508190027 | 70 | 77 | 0.0 | 0.0 | 0.00 | 0.01 | 0.01 | 57 | 1011.7 |
| 20260508184519 | 69 | 152 | 0.0 | 0.0 | 0.00 | 0.01 | 0.01 | 57 | 1012.2 |
| 20260508183014 | 69 | 159 | 0.0 | 0.0 | 0.00 | 0.01 | 0.01 | 56 | 1012.5 |
| 20260508181512 | 69 | 136 | 0.0 | 0.0 | 0.00 | 0.01 | 0.01 | 56 | 1012.7 |
| 20260508180015 | 69 | 131 | 0.0 | 4.0 | 0.00 | 0.01 | 0.01 | 55 | 1012.9 |
| 20260508174604 | 69 | 184 | 0.0 | 0.0 | 0.00 | 0.01 | 0.01 | 56 | 1013.0 |
| 20260508173056 | 69 | 114 | 0.0 | 2.0 | 0.00 | 0.01 | 0.01 | 55 | 1012.8 |
| 20260508171553 | 68 | 86 | 0.0 | 9.0 | 0.00 | 0.01 | 0.01 | 54 | 1012.8 |
| 20260508170048 | 69 | 126 | 0.0 | 3.0 | 0.00 | 0.01 | 0.01 | 56 | 1013.5 |
| 20260508164546 | 69 | 91 | 0.0 | 0.0 | 0.00 | 0.01 | 0.01 | 54 | 1013.4 |
| 20260508163047 | 69 | 108 | 0.0 | 9.0 | 0.00 | 0.01 | 0.01 | 54 | 1013.8 |
| 20260508161539 | 68 | 70 | 0.0 | 0.0 | 0.00 | 0.01 | 0.01 | 56 | 1014.3 |
| 20260508160056 | 67 | 80 | 0.0 | 8.0 | 0.00 | 0.01 | 0.01 | 56 | 1014.6 |
| 20260508154529 | 67 | 79 | 0.0 | 10.0 | 0.00 | 0.01 | 0.01 | 55 | 1015.1 |
| 20260508153028 | 67 | 77 | 0.0 | 0.0 | 0.00 | 0.01 | 0.01 | 58 | 1015.1 |
| 20260508151520 | 66 | 96 | 1.0 | 9.0 | 0.00 | 0.01 | 0.01 | 60 | 1015.1 |
| 20260508150020 | 65 | 84 | 0.0 | 0.0 | 0.01 | 0.01 | 0.01 | 61 | 1015.2 |
| 20260508144512 | 65 | 100 | 1.0 | 6.0 | 0.01 | 0.01 | 0.01 | 61 | 1015.5 |
| 20260508143007 | 64 | 86 | 0.0 | 3.0 | 0.01 | 0.01 | 0.01 | 61 | 1015.3 |
| 20260508141504 | 63 | 82 | 2.0 | 13.0 | 0.01 | 0.01 | 0.01 | 62 | 1015.1 |
| 20260508140057 | 62 | 127 | 3.0 | 12.0 | 0.00 | 0.00 | 0.00 | 60 | 1015.6 |
| 20260508134553 | 62 | 96 | 0.0 | 9.0 | 0.00 | 0.00 | 0.00 | 48 | 1015.8 |
| 20260508133056 | 61 | 79 | 5.0 | 10.0 | 0.00 | 0.00 | 0.00 | 46 | 1015.9 |
| 20260508131544 | 59 | 86 | 3.0 | 8.0 | 0.00 | 0.00 | 0.00 | 1 | 1015.6 |
| 20260508130042 | 59 | 83 | 0.0 | 1.0 | 0.00 | 0.00 | 0.00 | 1 | 1015.5 |
| 20260508124534 | 57 | 99 | 0.0 | 0.0 | 0.00 | 0.00 | 0.00 | 1 | 1015.6 |
| 20260508123031 | 56 | 103 | 0.0 | 0.0 | 0.00 | 0.00 | 0.00 | 1 | 1015.8 |
| 20260508121549 | 55 | 103 | 0.0 | 0.0 | 0.00 | 0.00 | 0.00 | 1 | 1015.7 |
| 20260508120022 | 53 | 103 | 0.0 | 0.0 | 0.00 | 0.00 | 0.00 | 1 | 1015.7 |
| 20260508114517 | 52 | 103 | 0.0 | 0.0 | 0.00 | 0.00 | 0.00 | 1 | 1015.6 |
| 20260508113013 | 51 | 103 | 0.0 | 0.0 | 0.00 | 0.00 | 0.00 | 1 | 1015.2 |
| 20260508111509 | 50 | 103 | 0.0 | 0.0 | 0.00 | 0.00 | 0.00 | 1 | 1014.9 |